Location: Eastlake (historical)
(39.0077°N, 122.6678°W)
Time: 18:02:50
(UTC+00:00)

SL-24 DEB - Pass Details

Date: 25 November 2020
Orbit: 664 x 701 km, 92.0° (Epoch: 22 January)

Event Time Altitude Azimuth Distance (km) Brightness Sun altitude
Rises 14:34:51 0° 179° (S) 3,044 7.9 -6.2°
Reaches altitude 10° 14:37:06 10° 182° (S) 2,138 7.1 -5.8°
Maximum altitude 14:41:49 70° 266° (W) 740 4.3 -4.9°
Drops below altitude 10° 14:46:36 10° 350° (N) 2,170 6.5 -4.1°
Sets 14:48:54 0° 353° (N) 3,094 7.3 -3.7°
